Regional Weather Roundup
Issued by NWS State College, PA

Home | Current Version | Previous Version | Graphics & Text | Print | Product List | Glossary Off
Versions: 1 2 3 4 5 6 7 8 9 10 11 12 13 14 15 16 17 18 19 20 21 22 23 24 25 26 27 28 29 30 31 32 33 34 35 36 37 38 39 40 41 42 43 44 45 46 47 48 49 50

000
ASUS41 KCTP 221110
RWRCTP

REGIONAL WEATHER ROUNDUP
NATIONAL WEATHER SERVICE STATE COLLEGE PA
700 AM EDT TUE JUL 22 2014

Note: "fair" indicates few or no clouds below 12,000 feet with no
significant weather and/or obstructions to visibility.

* = STATION THAT DOES NOT REPORT PRECIPITATION /E.G. RAIN...SNOW...ETC/
    THUNDER OR FOG.

PAZ002>004-007>009-013>016-020>023-029>032-221200-
WESTERN PENNSYLVANIA

CITY           SKY/WX    TMP DP  RH WIND       PRES   REMARKS
ERIE           CLEAR     68  63  84 CALM      30.13S
MEADVILLE      CLEAR     68  65  90 CALM      30.16S FOG
FRANKLIN*      CLOUDY    64  61  88 CALM      30.19R VSB<1/4
NEW CASTLE       N/A     64  64 100 CALM      30.16S FOG
BEAVER COUNTY  CLEAR     68  66  94 CALM      30.16  FOG
BUTLER*        MOCLDY    66  63  88 NE5       30.18R
PITTSBURGH INT CLEAR     69  67  93 CALM      30.15R
PITTSBURGH     CLEAR     69  66  90 SE3       30.15R
INDIANA*       CLEAR     66  64  94 CALM      30.22R FOG
LATROBE        CLEAR     66  66 100 CALM      30.17R
WASHINGTON CO* CLEAR     63  61  94 CALM      30.17R
$$

PAZ004>006-010>012-017>019-024>028-033>037-041-042-045-046-049>053-221200-
CENTRAL PENNSYLVANIA

CITY           SKY/WX    TMP DP  RH WIND       PRES   REMARKS
BRADFORD       FOG       62  61  96 SE3       30.21R VSB 1/4
DUBOIS         CLEAR     67  66  97 E5        30.19S FOG
CLEARFIELD     FOG       63  63 100 CALM      30.20R VSB<1/4
JOHNSTOWN      CLEAR     66  64  93 S5        30.22R
ALTOONA        CLOUDY    68  67  96 CALM      30.21R FOG
STATE COLLEGE  CLOUDY    68  66  94 CALM      30.20R FOG
WILLIAMSPORT   CLOUDY    67  64  90 E3        30.17R
SELINSGROVE    MOSUNNY   66  65  96 CALM      30.18S FOG
FT INDIANTOWN  CLOUDY    65  65 100 N1        30.19S
CAPITAL CITY   CLOUDY    71  66  84 CALM      30.18R
HARRISBURG     CLOUDY    72  66  81 SE3       30.18R
YORK           CLOUDY    69  66  90 CALM      30.19R
$$

PAZ038>040-043-044-047-048-054-055-060>062-067>071-221200-
EASTERN PENNSYLVANIA

CITY           SKY/WX    TMP DP  RH WIND       PRES   REMARKS
SCRANTON       SUNNY     67  62  84 E3        30.19R
MOUNT POCONO   PTSUNNY   65  62  90 CALM      30.23R
ALLENTOWN      SUNNY     67  64  90 CALM      30.18S
QUAKERTOWN*    SUNNY     64  63  94 CALM      30.20S
READING        SUNNY     68  64  87 S3        30.18R
LANCASTER      PTSUNNY   68  66  93 E3        30.19R FOG
COATESVILLE    NOT AVBL
POTTSTOWN      SUNNY     65  61  87 CALM      30.21R
BLUE BELL      NOT AVBL
DOYLESTOWN     SUNNY     63  62  97 CALM      30.19R
WILLOW GROVE   NOT AVBL
NORTH PHILA    SUNNY     69  61  75 CALM      30.20R
PHILADELPHIA   SUNNY     71  63  75 CALM      30.19S
$$



USA.gov is the U.S. government's official web portal to all federal, state and local government web resources and services.